COSMOS 886 DEB *

Satellite information

Favourite Embed

Satellite Type and Status

DEBRISIN ORBIT

Key statistics

Satellite COSMOS 886 DEB * at a glance.

Uptime

17788

Days in orbit

Revolutions

≈ 13.0

Per day

Orbit

LEO

Low Earth Orbit

Inclination

65.7

Latest

Satellite identification and parameters

Extended collection of information and parameters for COSMOS 886 DEB *.

Object identification

Identified? True

Debris? True

Object name: COSMOS 886 DEB *

International designator: 1976-126AU

Object number (NORAD): 9954

Object ID (CCSDS): 9954

Country: COMMONWEALTH OF INDEPENDENT STATES (CIS)

Current information (Y/N): Y

RCS size: SMALL

Orbital parameters

Period: 110.451 minutes

Inclination: 65.7008 deg

SMA: 7625.574 km

Apoapsis: 1930.821 km

Periapsis: 564.058 km

RAAN: 40.2873 deg

Eccentricy: 0.08961705

Argument of periapsis: 160.0313 deg

Mean anomaly: 203.8281 deg

Mean motion: 13.03748784 rev/day

Mean motion (dot): 0.00000935 rev/day2

B* drag term: 0.0004285708 1/REarth

Two-line elements (TLE)

Creation date: Sept. 8, 2025, 9:49 a.m.

Reference frame: TEME

Reference center: EARTH

Epoch: Sept. 8, 2025, 3:24 a.m. UTC

TLE line 0: 0 COSMOS 886 DEB *

TLE line 1: 1 09954U 76126AU 25251.14183727 .00000935 00000-0 42857-3 0 9993

TLE line 2: 2 09954 65.7008 40.2873 0896170 160.0313 203.8281 13.03748784590311

Live tracking on map

Real-time ground track for satellite COSMOS 886 DEB *.

In-orbit conjunctions

A list of the most updated potential collisions computed for object COSMOS 886 DEB *.

Target Orbit TCA Probability of collision Miss distance Type
COSMOS 789 DEB LEO 2024-07-02 12:51:16 0.0001072485 105.0 (m) DEBRIS

Associated space launch

Second generation ASAT satellite

COSMOS 886 DEB * was lifted into orbit during the mission ‘Tsiklon-2 | IS-A 4’, on board a Tsiklon-2 space rocket.

The launch took place on Dec. 27, 1976, 12:05 p.m. from 90.

For more information about the launch, click the button.

Launch to space Tsiklon-2 | IS-A 4
Tsiklon-2 | IS-A 4

Agency: N/A

Status: Launch Successful

Launch date: Dec. 27, 1976, 12:05 p.m. UTC

Rocket: Tsiklon-2

Launch pad: 90

Location: Baikonur Cosmodrome, Republic of Kazakhstan

...

Latest news about this satellite

There are no fresh news available about this satellite. Check back as we update our databases every day.


Newsletter sign-up

Weekly statistics, charts and insights to help you stay on top of the space industry.